Location: Bun Machan
(52.1403°N, 7.3744°W)
Time: 19:02:29
(UTC+00:00)

Cosmos 1459 Rocket - Pass Details

Date: 14 July 2020
Orbit: 938 x 999 km, 83.0° (Epoch: 11 August)

Event Time Altitude Azimuth Distance (km) Brightness Sun altitude
Exits shadow 02:37:20 15° 210° (SSW) 2,305 5.3 -11.6°
Maximum altitude 02:42:18 56° 286° (WNW) 1,124 4.3 -11.2°
Drops below altitude 10° 02:48:24 10° 4° (N) 2,715 7.4 -10.7°
Sets 02:51:00 0° 9° (N) 3,676 8.4 -10.5°
